GW3011 Weather Reports


time (UTC)temp
F
wind
direction
speed
knots
gust
knots
rain 1hr
in
rain 24hr
in
rain mn
in
humidity
%
barometer
mb
20260507003743 67 150 1.7 2.6 0.00 0.00 0.00 80 1007.1
20260507003238 67 129 3.5 3.5 0.00 0.00 0.00 80 1007.0
20260507002734 67 173 1.7 2.6 0.00 0.00 0.00 80 1006.9
20260507002230 67 266 1.7 1.7 0.00 0.00 0.00 80 1007.0
20260507001727 67 151 0.9 1.7 0.00 0.00 0.00 80 1007.3
20260507001225 67 292 1.7 2.6 0.00 0.00 0.00 80 1007.2
20260507000721 67 243 0.9 0.9 0.00 0.00 0.00 80 1007.2
20260507000216 67 175 1.7 2.6 0.00 0.00 0.00 80 1007.2
20260506235714 67 274 1.7 1.7 0.00 0.00 0.00 80 1006.9
20260506235209 67 222 4.3 6.1 0.00 0.00 0.00 79 1006.9
20260506234706 67 203 2.6 2.6 0.00 0.00 0.00 80 1007.1
20260506234204 67 194 1.7 2.6 0.00 0.00 0.00 80 1006.8
20260506233701 67 268 1.7 2.6 0.00 0.00 0.00 80 1006.8
20260506233157 67 289 0.0 0.0 0.00 0.00 0.00 80 1006.6
20260506232654 67 311 0.9 1.7 0.00 0.00 0.00 80 1006.7
20260506232149 67 295 3.5 6.1 0.00 0.00 0.00 80 1007.0
20260506231646 67 188 2.6 3.5 0.00 0.00 0.00 80 1006.9
20260506231145 67 197 1.7 2.6 0.00 0.00 0.00 80 1006.6
20260506230641 67 203 4.3 7.0 0.00 0.00 0.00 80 1006.4
20260506230138 67 262 3.5 3.5 0.00 0.00 0.00 80 1006.9
20260506225635 67 198 2.6 6.1 0.00 0.00 0.00 80 1006.8
20260506225131 67 275 0.9 1.7 0.00 0.00 0.00 80 1006.7
20260506224628 67 173 3.5 5.2 0.00 0.00 0.00 80 1006.6
20260506224124 67 298 1.7 2.6 0.00 0.00 0.00 80 1006.7
20260506223621 67 192 0.9 1.7 0.00 0.00 0.00 80 1006.6
20260506223117 67 358 1.7 3.5 0.00 0.00 0.00 80 1006.6
20260506222614 67 175 4.3 5.2 0.00 0.00 0.00 80 1006.4
20260506222110 67 164 3.5 5.2 0.00 0.00 0.00 80 1006.6
20260506221608 67 190 3.5 5.2 0.00 0.00 0.00 80 1006.4
20260506221106 67 220 0.9 2.6 0.00 0.00 0.00 80 1006.4
20260506220602 67 199 4.3 6.1 0.00 0.00 0.00 81 1006.4
20260506220057 66 267 0.9 0.9 0.00 0.00 0.00 81 1006.6
20260506215554 66 238 1.7 1.7 0.00 0.00 0.00 81 1006.6
20260506215050 66 300 1.7 1.7 0.00 0.00 0.00 81 1006.4
20260506214547 66 182 5.2 7.8 0.00 0.00 0.00 81 1006.3
20260506214044 66 266 0.9 1.7 0.00 0.00 0.00 82 1006.3
20260506213543 66 190 2.6 6.1 0.00 0.00 0.00 81 1006.3
20260506213040 66 228 1.7 2.6 0.00 0.00 0.00 82 1006.1
20260506212536 66 301 2.6 2.6 0.00 0.00 0.00 81 1006.2
20260506212031 66 178 2.6 2.6 0.00 0.00 0.00 82 1006.2
20260506211527 66 95 1.7 2.6 0.00 0.00 0.00 82 1006.1
20260506211024 66 136 2.6 5.2 0.00 0.00 0.00 82 1006.2
20260506210521 66 181 3.5 7.8 0.00 0.00 0.00 82 1006.2
20260506210018 66 230 2.6 3.5 0.00 0.00 0.00 82 1006.0
20260506205514 66 157 2.6 3.5 0.00 0.00 0.00 82 1005.9
20260506205009 65 186 0.9 1.7 0.00 0.00 0.00 82 1005.9
20260506204508 65 205 2.6 5.2 0.00 0.02 0.02 82 1005.8
20260506204004 65 180 2.6 3.5 0.00 0.02 0.02 83 1005.7
20260506203503 65 237 0.0 0.9 0.00 0.02 0.02 83 1006.0
20260506202959 65 167 3.5 6.1 0.00 0.02 0.02 83 1005.9
20260506202456 65 97 6.1 7.0 0.00 0.02 0.02 83 1006.2
20260506201952 65 192 3.5 3.5 0.00 0.02 0.02 83 1006.0
20260506201450 65 210 4.3 7.8 0.00 0.02 0.02 83 1006.2
20260506200947 65 178 5.2 7.8 0.00 0.02 0.02 83 1006.3
20260506200443 65 223 4.3 7.0 0.00 0.02 0.02 83 1006.6
20260506195939 65 177 5.2 7.0 0.00 0.02 0.02 83 1006.4
20260506195436 65 190 2.6 5.2 0.00 0.02 0.02 84 1006.2
20260506194933 64 223 0.9 2.6 0.00 0.02 0.02 86 1006.3
20260506194430 64 165 3.5 3.5 0.00 0.02 0.02 85 1006.3
20260506193927 64 279 0.0 0.0 0.00 0.02 0.02 86 1006.6
20260506193424 64 190 3.5 6.1 0.00 0.02 0.02 86 1006.7
20260506192920 64 227 4.3 6.1 0.00 0.02 0.02 85 1007.0
20260506192417 64 250 2.6 5.2 0.05 0.02 0.02 85 1006.6
20260506191915 64 168 5.2 13.0 0.05 0.02 0.02 85 1006.9
20260506191411 64 183 1.7 5.2 0.00 0.01 0.01 86 1006.4
20260506190908 63 208 4.3 8.7 0.00 0.01 0.01 87 1006.8
20260506190404 63 308 0.9 0.9 0.00 0.01 0.01 87 1006.8
20260506185901 62 312 0.9 1.7 0.00 0.01 0.01 87 1006.8
20260506185358 62 299 3.5 6.1 0.00 0.01 0.01 86 1007.0
20260506184855 62 319 1.7 2.6 0.00 0.01 0.01 86 1006.9
20260506184352 62 310 0.0 0.0 0.00 0.01 0.01 86 1007.1
20260506183850 61 30 1.7 1.7 0.00 0.01 0.01 85 1006.6
20260506183344 61 347 1.7 2.6 0.00 0.01 0.01 84 1006.9
20260506182842 61 20 2.6 3.5 0.00 0.01 0.01 84 1006.7
20260506182339 61 23 3.5 5.2 0.00 0.01 0.01 84 1007.2
20260506181837 62 40 3.5 5.2 0.00 0.01 0.01 83 1007.1
20260506181334 62 309 1.7 2.6 0.00 0.01 0.01 83 1007.5
20260506180826 63 35 0.9 1.7 0.00 0.01 0.01 83 1007.3
20260506180321 63 308 0.9 0.9 0.00 0.01 0.01 83 1007.3
20260506175818 63 347 0.9 1.7 0.00 0.01 0.01 84 1007.2
20260506175315 64 341 3.5 5.2 0.00 0.01 0.01 82 1007.2
20260506174812 66 60 3.5 5.2 0.00 0.01 0.01 80 1007.1
20260506174309 67 311 0.0 0.9 0.00 0.01 0.01 79 1007.3
20260506173807 67 315 2.6 5.2 0.00 0.01 0.01 78 1007.2
20260506173303 66 221 2.6 2.6 0.00 0.01 0.01 78 1007.1
20260506172800 66 294 2.6 3.5 0.00 0.01 0.01 78 1007.2
20260506172257 66 323 3.5 5.2 0.00 0.01 0.01 78 1007.5
20260506171755 66 280 0.9 0.9 0.00 0.01 0.01 79 1007.4
20260506171252 66 197 1.7 2.6 0.00 0.01 0.01 79 1007.9
20260506170749 67 284 4.3 7.0 0.00 0.01 0.01 78 1007.9
20260506170245 66 3 4.3 7.0 0.07 0.01 0.01 78 1007.9
20260506165744 66 198 7.8 8.7 0.07 0.01 0.01 78 1008.3
20260506165241 67 295 3.5 6.1 0.00 0.00 0.00 79 1008.1
20260506164738 67 50 3.5 6.1 0.00 0.00 0.00 77 1008.4
20260506164235 67 239 4.3 7.0 0.00 0.00 0.00 77 1008.3
20260506163732 67 189 1.7 3.5 0.00 0.00 0.00 77 1008.4
20260506163226 67 328 2.6 3.5 0.00 0.00 0.00 76 1008.3
20260506162723 67 268 3.5 5.2 0.00 0.00 0.00 75 1008.2
20260506162221 69 169 3.5 3.5 0.00 0.00 0.00 72 1008.5
20260506161718 69 161 1.7 2.6 0.00 0.00 0.00 68 1008.4
20260506161215 70 214 5.2 7.0 0.00 0.00 0.00 64 1008.6
20260506160713 71 125 3.5 7.0 0.00 0.00 0.00 63 1008.8
20260506160209 71 164 3.5 5.2 0.00 0.00 0.00 63 1008.5
20260506155707 71 183 4.3 7.0 0.00 0.00 0.00 62 1008.7
20260506155204 71 166 2.6 5.2 0.00 0.00 0.00 62 1008.6
20260506153312 71 140 12.2 13.9 0.00 0.00 0.00 63 1008.6
20260506152808 71 205 7.8 12.2 0.00 0.00 0.00 63 1008.3
20260506152306 71 306 4.3 6.1 0.00 0.00 0.00 63 1008.6
20260506151805 71 130 7.0 8.7 0.00 0.00 0.00 63 1008.5
20260506151301 71 183 7.8 9.6 0.00 0.00 0.00 63 1008.8
20260506150757 69 138 4.3 7.8 0.00 0.00 0.00 66 1008.8
20260506150303 68 306 0.0 0.0 0.00 0.00 0.00 69 1008.9
20260506145752 67 304 2.6 2.6 0.00 0.00 0.00 69 1008.8
20260506145248 68 89 2.6 2.6 0.00 0.00 0.00 68 1008.8
20260506144746 68 55 2.6 2.6 0.00 0.00 0.00 69 1008.9
20260506144242 69 297 1.7 1.7 0.00 0.00 0.00 67 1009.1
20260506143740 70 280 0.0 0.0 0.00 0.00 0.00 66 1008.8
20260506143237 69 174 1.7 2.6 0.00 0.00 0.00 68 1008.7
20260506142736 68 136 3.5 3.5 0.00 0.00 0.00 69 1008.9
20260506142233 68 227 3.5 3.5 0.00 0.00 0.00 69 1008.7
20260506141731 68 216 2.6 3.5 0.00 0.00 0.00 69 1008.5
20260506141229 68 150 4.3 6.1 0.00 0.00 0.00 69 1008.7
20260506140727 68 169 4.3 9.6 0.00 0.00 0.00 69 1008.7
20260506140223 68 126 6.1 8.7 0.00 0.00 0.00 69 1008.8
20260506135720 68 143 1.7 5.2 0.00 0.00 0.00 69 1009.0
20260506135216 68 65 1.7 3.5 0.00 0.00 0.00 69 1009.1
20260506134713 68 204 1.7 1.7 0.00 0.00 0.00 70 1008.9
20260506134209 68 175 5.2 7.0 0.00 0.00 0.00 70 1008.9
20260506133707 68 190 5.2 6.1 0.00 0.00 0.00 70 1008.9
20260506133203 68 278 2.6 6.1 0.00 0.00 0.00 70 1009.2
20260506132701 67 189 7.0 9.6 0.00 0.00 0.00 72 1009.1
20260506132157 67 170 3.5 5.2 0.00 0.00 0.00 72 1009.4
20260506131655 67 169 4.3 6.1 0.00 0.00 0.00 72 1008.9
20260506131151 67 121 8.7 9.6 0.00 0.00 0.00 72 1009.1
20260506130648 67 338 1.7 1.7 0.00 0.00 0.00 71 1009.2
20260506130145 67 249 2.6 5.2 0.00 0.00 0.00 72 1008.9
20260506125644 67 150 2.6 2.6 0.00 0.00 0.00 72 1008.9
20260506125141 67 128 5.2 6.1 0.00 0.00 0.00 72 1008.9
20260506124639 66 223 3.5 6.1 0.00 0.00 0.00 73 1008.8
20260506124136 66 133 1.7 2.6 0.00 0.00 0.00 74 1009.2
20260506123634 66 308 1.7 2.6 0.00 0.00 0.00 74 1009.1
20260506123132 65 79 3.5 7.0 0.00 0.00 0.00 75 1009.1
20260506122629 65 281 0.9 1.7 0.00 0.00 0.00 75 1009.1
20260506122126 65 163 5.2 7.0 0.00 0.00 0.00 75 1009.1
20260506121624 66 304 2.6 3.5 0.00 0.00 0.00 74 1009.3
20260506121120 66 229 3.5 6.1 0.00 0.00 0.00 74 1009.4
20260506120618 66 139 4.3 5.2 0.00 0.00 0.00 74 1009.6
20260506120115 66 204 5.2 6.1 0.00 0.00 0.00 75 1009.4
20260506115614 66 174 3.5 6.1 0.00 0.00 0.00 74 1009.4
20260506115112 65 127 2.6 7.0 0.00 0.00 0.00 75 1009.4
20260506114608 65 173 4.3 6.1 0.00 0.00 0.00 76 1009.3
20260506114107 65 173 3.5 3.5 0.00 0.00 0.00 76 1009.6
20260506113604 64 283 3.5 5.2 0.00 0.00 0.00 77 1009.5
20260506113101 64 139 4.3 5.2 0.00 0.00 0.00 78 1009.3
20260506112557 64 205 3.5 6.1 0.00 0.00 0.00 78 1009.5
20260506112055 64 280 3.5 6.1 0.00 0.00 0.00 78 1009.5
20260506111553 64 152 8.7 14.8 0.00 0.00 0.00 79 1009.1
20260506111050 64 27 3.5 7.8 0.00 0.00 0.00 78 1009.1
20260506110548 63 251 6.1 7.8 0.00 0.00 0.00 80 1009.0
20260506110045 63 23 3.5 6.1 0.00 0.00 0.00 81 1009.2
20260506105541 62 344 3.5 6.1 0.00 0.00 0.00 81 1009.1
20260506105038 62 110 4.3 7.8 0.00 0.00 0.00 81 1009.1
20260506104536 63 218 2.6 5.2 0.00 0.00 0.00 81 1009.2
20260506104034 63 357 3.5 6.1 0.00 0.00 0.00 81 1009.1
20260506103531 62 261 2.6 5.2 0.00 0.00 0.00 81 1009.2
20260506103027 62 148 5.2 7.0 0.00 0.00 0.00 82 1009.0
20260506102526 62 300 1.7 2.6 0.00 0.00 0.00 82 1009.1
20260506102023 62 147 1.7 3.5 0.00 0.00 0.00 82 1009.1
20260506101519 62 163 5.2 7.0 0.00 0.00 0.00 82 1009.0
20260506101016 62 212 0.9 1.7 0.00 0.00 0.00 82 1008.8
20260506100515 62 278 1.7 1.7 0.00 0.00 0.00 82 1008.9
20260506100013 62 148 5.2 6.1 0.00 0.00 0.00 82 1009.0
20260506095511 62 149 4.3 6.1 0.00 0.00 0.00 82 1008.9
20260506095007 62 302 2.6 3.5 0.00 0.00 0.00 82 1009.0
20260506094505 62 178 5.2 7.0 0.00 0.00 0.00 82 1009.1
20260506094003 62 108 7.8 12.2 0.00 0.00 0.00 82 1009.1
20260506093501 62 209 1.7 2.6 0.00 0.00 0.00 82 1008.9
20260506092958 62 156 5.2 7.0 0.00 0.00 0.00 82 1009.1
20260506092456 62 163 1.7 2.6 0.00 0.00 0.00 82 1009.0
20260506091952 62 176 6.1 7.8 0.00 0.00 0.00 82 1008.9
20260506091450 62 329 7.0 11.3 0.00 0.00 0.00 82 1008.8
20260506090947 62 133 2.6 3.5 0.00 0.00 0.00 82 1009.1
20260506090445 62 112 2.6 2.6 0.00 0.00 0.00 82 1009.2
20260506085941 62 141 5.2 8.7 0.00 0.00 0.00 82 1009.2
20260506085438 62 279 4.3 7.0 0.00 0.00 0.00 82 1009.1
20260506084934 62 284 0.9 1.7 0.00 0.00 0.00 82 1009.3
20260506084432 62 125 3.5 5.2 0.00 0.00 0.00 82 1009.4
20260506083927 62 300 1.7 1.7 0.00 0.00 0.00 82 1009.2
20260506083425 62 339 2.6 5.2 0.00 0.00 0.00 82 1009.3
20260506082922 62 178 1.7 1.7 0.00 0.00 0.00 82 1009.4
20260506082419 62 308 0.0 0.0 0.00 0.00 0.00 82 1009.2
20260506081915 63 292 0.9 1.7 0.00 0.00 0.00 81 1009.4
20260506081414 63 304 0.0 0.0 0.00 0.00 0.00 81 1009.4
20260506080910 63 180 2.6 3.5 0.00 0.00 0.00 81 1009.1
20260506080407 63 296 0.9 0.9 0.00 0.00 0.00 81 1009.1
20260506073351 63 110 4.3 5.2 0.00 0.00 0.00 80 1009.5
20260506072847 63 2 1.7 2.6 0.00 0.00 0.00 80 1009.3
20260506072345 64 291 0.9 0.9 0.00 0.00 0.00 79 1009.3
20260506071843 64 256 3.5 3.5 0.00 0.00 0.00 79 1009.6
20260506071341 64 187 4.3 7.0 0.00 0.00 0.00 79 1009.5
20260506070837 64 170 3.5 7.8 0.00 0.00 0.00 78 1009.5
20260506070335 64 305 1.7 2.6 0.00 0.00 0.00 78 1009.4
20260506062312 61 70 1.7 3.5 0.00 0.00 0.00 78 1009.6
20260506061808 62 346 0.9 1.7 0.00 0.00 0.00 78 1009.5
20260506061304 62 348 0.0 0.0 0.00 0.00 0.00 77 1009.5
20260506060803 62 308 0.0 0.9 0.00 0.00 0.00 77 1009.5
20260506060301 62 356 1.7 2.6 0.00 0.00 0.00 77 1009.7
20260506051232 65 333 2.6 6.1 0.00 0.00 0.00 72 1009.9
20260506050730 65 346 3.5 6.1 0.00 0.00 0.00 72 1010.1
20260506050227 65 311 0.9 0.9 0.00 0.00 0.00 72 1010.1
20260506044718 66 296 0.9 0.9 0.00 0.00 0.00 71 1009.8
20260506044215 66 262 2.6 3.5 0.00 0.00 0.00 71 1009.9
20260506043712 66 29 0.9 0.9 0.00 0.00 0.00 71 1010.0
20260506043210 66 301 0.9 0.9 0.00 0.00 0.00 70 1010.0
20260506042709 66 243 3.5 5.2 0.00 0.00 0.00 70 1010.0
20260506042206 66 194 5.2 7.8 0.00 0.00 0.00 69 1010.0
20260506041705 67 71 3.5 7.0 0.00 0.00 0.00 69 1010.1
20260506041201 67 234 5.2 7.0 0.00 0.00 0.00 68 1009.9
20260506040659 67 155 2.6 5.2 0.00 0.00 0.00 67 1009.9
20260506040155 67 175 11.3 13.9 0.00 0.00 0.00 67 1010.1
20260506035652 67 162 7.0 11.3 0.00 0.00 0.00 67 1010.0
20260506035149 67 55 5.2 7.8 0.00 0.00 0.00 67 1009.9
20260506034646 68 226 2.6 5.2 0.00 0.00 0.00 66 1010.3
20260506034143 68 304 2.6 3.5 0.00 0.00 0.00 66 1010.0
20260506033640 68 84 2.6 7.8 0.00 0.00 0.00 66 1009.9
20260506033137 68 199 5.2 7.8 0.00 0.00 0.00 65 1009.9
20260506032634 68 181 2.6 6.1 0.00 0.00 0.00 65 1009.8
20260506032131 68 300 3.5 5.2 0.00 0.00 0.00 64 1009.6
20260506031628 68 152 7.0 9.6 0.00 0.00 0.00 64 1009.7
20260506031125 68 122 9.6 11.3 0.00 0.00 0.00 64 1009.7
20260506030624 68 143 6.1 9.6 0.00 0.00 0.00 65 1009.8
20260506030121 68 126 2.6 3.5 0.00 0.00 0.00 65 1009.6
20260506025617 67 166 6.1 8.7 0.00 0.00 0.00 64 1009.7
20260506025113 67 157 5.2 8.7 0.00 0.00 0.00 65 1009.8
20260506024611 67 79 5.2 12.2 0.00 0.00 0.00 65 1009.8
20260506024107 67 121 6.1 9.6 0.00 0.00 0.00 65 1009.7
20260506023603 67 87 5.2 7.0 0.00 0.00 0.00 65 1009.8
20260506023101 67 260 4.3 6.1 0.00 0.00 0.00 64 1009.9
20260506022558 67 252 2.6 3.5 0.00 0.00 0.00 65 1009.9
20260506022056 67 175 2.6 5.2 0.00 0.00 0.00 65 1009.8
20260506021553 67 164 3.5 3.5 0.00 0.00 0.00 64 1009.9
20260506021050 67 21 1.7 2.6 0.00 0.00 0.00 65 1009.8
20260506020547 67 10 5.2 7.8 0.00 0.00 0.00 65 1009.7
20260506020044 67 291 6.1 9.6 0.00 0.00 0.00 64 1009.7
20260506015542 68 288 3.5 5.2 0.00 0.00 0.00 64 1009.8
20260506015039 68 249 5.2 7.0 0.00 0.00 0.00 63 1009.8
20260506014536 68 158 2.6 5.2 0.00 0.00 0.00 63 1009.7
20260506014032 68 165 5.2 7.8 0.00 0.00 0.00 63 1010.0
20260506013531 68 282 3.5 7.0 0.00 0.00 0.00 63 1009.6
20260506013027 68 204 5.2 8.7 0.00 0.00 0.00 62 1009.9
20260506012523 67 150 6.1 8.7 0.00 0.00 0.00 63 1009.4
20260506012020 67 344 0.9 0.9 0.00 0.00 0.00 64 1009.7
20260506011517 66 69 3.5 5.2 0.00 0.00 0.00 64 1009.7
20260506011013 66 303 0.0 0.0 0.00 0.00 0.00 65 1009.5
20260506010508 66 349 0.9 1.7 0.00 0.00 0.00 65 1009.4
20260506010003 66 40 1.7 6.1 0.00 0.00 0.00 65 1009.2
20260506005501 66 13 3.5 3.5 0.00 0.00 0.00 64 1009.3
20260506004956 66 280 2.6 2.6 0.00 0.00 0.00 64 1009.1
20260506004454 67 63 3.5 6.1 0.00 0.00 0.00 63 1009.2
20260506003950 67 84 1.7 3.5 0.00 0.00 0.00 63 1009.1